Time,TemperatureF,DewpointF,PressureIn,WindDirection,WindDirectionDegrees,WindSpeedMPH,WindSpeedGustMPH,Humidity,HourlyPrecipIn,Conditions,Clouds,dailyrainin,SolarRadiationWatts/m^2,SoftwareType,DateUTC
2013-05-23 00:02:00,70.4,66.7,29.88,SE,144,0.0,2.0,88,0.00,,,0.00,0.00,VWS V14.01,2013-05-23 04:02:00,
2013-05-23 00:03:00,70.4,66.7,29.88,SE,144,3.0,3.0,88,0.00,,,0.00,0.00,VWS V14.01,2013-05-23 04:03:00,
2013-05-23 00:08:00,70.4,66.7,29.88,SSE,150,3.0,3.0,88,0.00,,,0.00,0.00,VWS V14.01,2013-05-23 04:08:00,
2013-05-23 00:13:00,70.4,66.7,29.88,SSW,207,0.0,0.0,88,0.00,,,0.00,0.00,VWS V14.01,2013-05-23 04:13:00,
2013-05-23 00:18:00,70.4,66.7,29.88,SSW,198,3.0,5.0,88,0.00,,,0.00,0.00,VWS V14.01,2013-05-23 04:18:00,
2013-05-23 00:23:00,70.6,66.6,29.88,SSW,198,0.0,0.0,87,0.00,,,0.00,0.00,VWS V14.01,2013-05-23 04:23:00,
2013-05-23 00:28:00,70.8,66.7,29.88,SSW,205,0.0,1.0,87,0.00,,,0.00,0.00,VWS V14.01,2013-05-23 04:28:00,
2013-05-23 00:33:00,70.8,66.7,29.88,SSW,195,2.0,2.0,87,0.00,,,0.00,0.00,VWS V14.01,2013-05-23 04:33:00,
2013-05-23 00:38:00,70.9,66.5,29.88,South,170,4.0,4.0,86,0.00,,,0.00,0.00,VWS V14.01,2013-05-23 04:38:00,
2013-05-23 00:43:00,71.1,66.7,29.88,SW,217,0.0,0.0,86,0.00,,,0.00,0.00,VWS V14.01,2013-05-23 04:43:00,
2013-05-23 00:48:00,71.1,66.7,29.88,South,186,4.0,5.0,86,0.00,,,0.00,0.00,VWS V14.01,2013-05-23 04:48:00,
2013-05-23 00:53:00,71.1,66.4,29.88,South,172,6.0,6.0,85,0.00,,,0.00,0.00,VWS V14.01,2013-05-23 04:53:00,
2013-05-23 00:58:00,71.1,66.4,29.88,South,181,1.0,3.0,85,0.00,,,0.00,0.00,VWS V14.01,2013-05-23 04:58:00,
2013-05-23 01:03:00,71.1,66.4,29.88,SW,221,4.0,4.0,85,0.00,,,0.00,0.00,VWS V14.01,2013-05-23 05:03:00,
2013-05-23 01:08:00,70.9,66.2,29.88,SSW,194,0.0,2.0,85,0.00,,,0.00,0.00,VWS V14.01,2013-05-23 05:08:00,
2013-05-23 01:13:00,70.9,66.2,29.88,SSW,192,0.0,0.0,85,0.00,,,0.00,0.00,VWS V14.01,2013-05-23 05:13:00,
2013-05-23 01:18:00,70.9,66.2,29.89,SW,229,0.0,0.0,85,0.00,,,0.00,0.00,VWS V14.01,2013-05-23 05:18:00,
2013-05-23 01:23:00,70.9,66.2,29.89,SSW,200,6.0,6.0,85,0.00,,,0.00,0.00,VWS V14.01,2013-05-23 05:23:00,
2013-05-23 01:28:00,70.9,66.2,29.89,SSW,205,4.0,5.0,85,0.00,,,0.00,0.00,VWS V14.01,2013-05-23 05:28:00,
2013-05-23 01:33:00,71.1,66.4,29.88,SSW,198,3.0,7.0,85,0.00,,,0.00,0.00,VWS V14.01,2013-05-23 05:33:00,
2013-05-23 01:38:00,71.1,66.4,29.88,SSE,168,2.0,9.0,85,0.00,,,0.00,0.00,VWS V14.01,2013-05-23 05:38:00,
2013-05-23 01:43:00,71.1,66.4,29.88,South,187,0.0,4.0,85,0.00,,,0.00,0.00,VWS V14.01,2013-05-23 05:43:00,
2013-05-23 01:48:00,71.3,66.6,29.88,SW,225,0.0,6.0,85,0.00,,,0.00,0.00,VWS V14.01,2013-05-23 05:48:00,
2013-05-23 01:53:00,71.3,66.6,29.88,SW,220,8.0,9.0,85,0.00,,,0.00,0.00,VWS V14.01,2013-05-23 05:53:00,
2013-05-23 01:58:00,71.3,66.6,29.88,South,170,2.0,4.0,85,0.00,,,0.00,0.00,VWS V14.01,2013-05-23 05:58:00,
2013-05-23 02:03:00,71.3,66.6,29.87,SW,230,6.0,8.0,85,0.00,,,0.00,0.00,VWS V14.01,2013-05-23 06:03:00,
2013-05-23 02:09:00,71.5,66.8,29.87,SSW,205,6.0,12.0,85,0.00,,,0.00,0.00,VWS V14.01,2013-05-23 06:09:00,
2013-05-23 02:14:00,71.5,66.8,29.87,SW,216,1.0,7.0,85,0.00,,,0.00,0.00,VWS V14.01,2013-05-23 06:14:00,
2013-05-23 02:19:00,71.5,66.8,29.87,South,189,1.0,7.0,85,0.00,,,0.00,0.00,VWS V14.01,2013-05-23 06:19:00,
2013-05-23 02:24:00,71.5,66.8,29.87,South,186,0.0,2.0,85,0.00,,,0.00,0.00,VWS V14.01,2013-05-23 06:24:00,
2013-05-23 02:29:00,71.5,66.8,29.87,SSW,210,3.0,7.0,85,0.00,,,0.00,0.00,VWS V14.01,2013-05-23 06:29:00,
2013-05-23 02:34:00,71.6,66.9,29.87,SW,218,2.0,5.0,85,0.00,,,0.00,0.00,VWS V14.01,2013-05-23 06:34:00,
2013-05-23 02:39:00,71.6,66.9,29.87,SSW,209,1.0,5.0,85,0.00,,,0.00,0.00,VWS V14.01,2013-05-23 06:39:00,
2013-05-23 02:45:00,71.5,66.8,29.87,WSW,243,2.0,2.0,85,0.00,,,0.00,0.00,VWS V14.01,2013-05-23 06:45:00,
2013-05-23 02:50:00,71.5,67.1,29.87,SSW,211,4.0,4.0,86,0.00,,,0.00,0.00,VWS V14.01,2013-05-23 06:50:00,
2013-05-23 02:55:00,71.5,67.1,29.87,SSW,210,2.0,4.0,86,0.00,,,0.00,0.00,VWS V14.01,2013-05-23 06:55:00,
2013-05-23 03:00:00,71.5,67.1,29.87,SSW,198,2.0,3.0,86,0.00,,,0.00,0.00,VWS V14.01,2013-05-23 07:00:00,
2013-05-23 03:05:00,71.5,66.8,29.87,SW,229,6.0,6.0,85,0.00,,,0.00,0.00,VWS V14.01,2013-05-23 07:05:00,
2013-05-23 03:10:00,71.5,66.8,29.87,SW,231,3.0,6.0,85,0.00,,,0.00,0.00,VWS V14.01,2013-05-23 07:10:00,
2013-05-23 03:15:00,71.5,66.8,29.87,SSW,198,3.0,3.0,85,0.00,,,0.00,0.00,VWS V14.01,2013-05-23 07:15:00,
2013-05-23 03:21:00,71.5,66.8,29.87,SSW,198,0.0,0.0,85,0.00,,,0.00,0.00,VWS V14.01,2013-05-23 07:21:00,
2013-05-23 03:26:00,71.5,66.8,29.87,SSW,198,0.0,0.0,85,0.00,,,0.00,0.00,VWS V14.01,2013-05-23 07:26:00,
2013-05-23 03:32:00,71.5,67.1,29.87,SSW,198,0.0,0.0,86,0.00,,,0.00,0.00,VWS V14.01,2013-05-23 07:32:00,
2013-05-23 03:37:00,71.5,67.1,29.87,SSW,198,0.0,0.0,86,0.00,,,0.00,0.00,VWS V14.01,2013-05-23 07:37:00,
2013-05-23 11:26:00,83.8,63.8,29.84,SSW,201,2.0,5.0,51,0.00,,,0.00,928.00,VWS V14.01,2013-05-23 15:26:00,
2013-05-23 11:31:00,84.1,63.5,29.84,SSW,205,3.0,7.0,50,0.00,,,0.00,905.00,VWS V14.01,2013-05-23 15:31:00,
2013-05-23 11:36:00,84.1,62.9,29.84,SW,231,0.0,7.0,49,0.00,,,0.00,907.00,VWS V14.01,2013-05-23 15:36:00,
2013-05-23 11:41:00,84.3,62.5,29.84,SSW,192,4.0,4.0,48,0.00,,,0.00,898.00,VWS V14.01,2013-05-23 15:41:00,
2013-05-23 11:46:00,84.7,63.5,29.83,WSW,241,0.0,5.0,49,0.00,,,0.00,1027.00,VWS V14.01,2013-05-23 15:46:00,
2013-05-23 11:51:00,84.7,62.9,29.83,WSW,257,0.0,0.0,48,0.00,,,0.00,997.00,VWS V14.01,2013-05-23 15:51:00,
2013-05-23 11:56:00,84.9,64.8,29.83,West,276,5.0,9.0,51,0.00,,,0.00,1014.00,VWS V14.01,2013-05-23 15:56:00,
2013-05-23 12:02:00,85.3,63.4,29.83,North,349,4.0,4.0,48,0.00,,,0.00,956.00,VWS V14.01,2013-05-23 16:02:00,
2013-05-23 12:07:00,85.3,63.4,29.83,West,272,2.0,7.0,48,0.00,,,0.00,290.00,VWS V14.01,2013-05-23 16:07:00,
2013-05-23 12:12:00,84.7,62.9,29.83,WNW,301,0.0,0.0,48,0.00,,,0.00,325.00,VWS V14.01,2013-05-23 16:12:00,
2013-05-23 12:17:00,84.5,64.4,29.83,WNW,301,0.0,0.0,51,0.00,,,0.00,1067.00,VWS V14.01,2013-05-23 16:17:00,
2013-05-23 12:22:00,84.5,64.4,29.83,West,278,5.0,7.0,51,0.00,,,0.00,1090.00,VWS V14.01,2013-05-23 16:22:00,
2013-05-23 12:27:00,84.3,64.2,29.83,WSW,248,0.0,0.0,51,0.00,,,0.00,1004.00,VWS V14.01,2013-05-23 16:27:00,
2013-05-23 12:32:00,84.5,63.8,29.83,West,270,4.0,6.0,50,0.00,,,0.00,309.00,VWS V14.01,2013-05-23 16:32:00,
2013-05-23 12:37:00,84.3,64.2,29.83,SSW,212,0.0,0.0,51,0.00,,,0.00,1085.00,VWS V14.01,2013-05-23 16:37:00,
2013-05-23 12:42:00,84.9,64.2,29.83,West,263,4.0,5.0,50,0.00,,,0.00,911.00,VWS V14.01,2013-05-23 16:42:00,
2013-05-23 12:47:00,85.3,64.0,29.82,WSW,257,0.0,0.0,49,0.00,,,0.00,1148.00,VWS V14.01,2013-05-23 16:47:00,
2013-05-23 12:52:00,85.5,64.2,29.82,ENE,62,2.0,2.0,49,0.00,,,0.00,330.00,VWS V14.01,2013-05-23 16:52:00,
2013-05-23 12:57:00,85.3,64.6,29.82,West,262,7.0,7.0,50,0.00,,,0.00,782.00,VWS V14.01,2013-05-23 16:57:00,
2013-05-23 13:02:00,84.9,64.2,29.81,NW,316,0.0,0.0,50,0.00,,,0.00,388.00,VWS V14.01,2013-05-23 17:02:00,
2013-05-23 13:07:00,84.5,64.4,29.81,West,269,0.0,0.0,51,0.00,,,0.00,385.00,VWS V14.01,2013-05-23 17:07:00,
2013-05-23 13:12:00,84.3,64.8,29.81,WNW,290,0.0,0.0,52,0.00,,,0.00,308.00,VWS V14.01,2013-05-23 17:12:00,
2013-05-23 13:17:00,84.0,64.5,29.81,South,184,0.0,3.0,52,0.00,,,0.00,220.00,VWS V14.01,2013-05-23 17:17:00,
2013-05-23 13:22:00,83.6,65.2,29.81,West,275,0.0,0.0,54,0.00,,,0.00,142.00,VWS V14.01,2013-05-23 17:22:00,
2013-05-23 13:27:00,83.2,65.4,29.81,West,276,0.0,0.0,55,0.00,,,0.00,54.00,VWS V14.01,2013-05-23 17:27:00,
2013-05-23 13:32:00,82.6,65.8,29.80,WNW,290,0.0,4.0,57,0.00,,,0.00,51.00,VWS V14.01,2013-05-23 17:32:00,
2013-05-23 13:37:00,81.8,65.6,29.80,NNW,333,0.0,0.0,58,0.00,,,0.00,98.00,VWS V14.01,2013-05-23 17:37:00,
2013-05-23 13:42:00,81.2,65.5,29.80,NW,307,0.0,0.0,59,0.00,,,0.00,207.00,VWS V14.01,2013-05-23 17:42:00,
2013-05-23 13:47:00,81.1,65.9,29.79,NW,321,0.0,0.0,60,0.00,,,0.00,257.00,VWS V14.01,2013-05-23 17:47:00,
2013-05-23 13:52:00,81.1,65.9,29.79,NW,321,0.0,1.0,60,0.00,,,0.00,234.00,VWS V14.01,2013-05-23 17:52:00,
2013-05-23 13:57:00,81.1,66.4,29.79,SE,128,10.0,10.0,61,0.00,,,0.00,216.00,VWS V14.01,2013-05-23 17:57:00,
2013-05-23 14:02:00,80.3,67.5,29.80,East,96,4.0,4.0,65,0.00,,,0.00,178.00,VWS V14.01,2013-05-23 18:02:00,
2013-05-23 14:07:00,79.6,67.7,29.80,ENE,73,0.0,3.0,67,0.00,,,0.00,81.00,VWS V14.01,2013-05-23 18:07:00,
2013-05-23 14:12:00,78.6,68.0,29.80,ESE,110,5.0,6.0,70,0.00,,,0.00,76.00,VWS V14.01,2013-05-23 18:12:00,
2013-05-23 14:17:00,77.2,65.8,29.78,East,101,5.0,5.0,68,0.00,,,0.00,54.00,VWS V14.01,2013-05-23 18:17:00,
2013-05-23 14:22:00,76.3,65.8,29.78,ESE,121,6.0,8.0,70,0.00,,,0.00,62.00,VWS V14.01,2013-05-23 18:22:00,
2013-05-23 14:27:00,75.6,65.9,29.78,ESE,104,3.0,4.0,72,0.00,,,0.00,88.00,VWS V14.01,2013-05-23 18:27:00,
2013-05-23 14:32:00,75.3,65.7,29.78,ESE,113,2.0,4.0,72,0.00,,,0.00,79.00,VWS V14.01,2013-05-23 18:32:00,
2013-05-23 14:37:00,74.9,65.7,29.78,SE,143,0.0,3.0,73,0.00,,,0.00,47.00,VWS V14.01,2013-05-23 18:37:00,
2013-05-23 14:42:00,74.6,65.8,29.78,ESE,115,1.0,1.0,74,0.00,,,0.00,53.00,VWS V14.01,2013-05-23 18:42:00,
2013-05-23 14:47:00,74.6,66.2,29.78,SSW,194,3.0,3.0,75,0.00,,,0.00,53.00,VWS V14.01,2013-05-23 18:47:00,
2013-05-23 14:52:00,74.6,66.5,29.78,SSW,196,2.0,4.0,76,0.00,,,0.00,32.00,VWS V14.01,2013-05-23 18:52:00,
2013-05-23 14:57:00,74.6,66.9,29.78,SW,216,0.0,1.0,77,0.00,,,0.00,37.00,VWS V14.01,2013-05-23 18:57:00,
2013-05-23 15:02:00,74.4,67.1,29.80,SW,214,7.0,7.0,78,0.00,,,0.00,54.00,VWS V14.01,2013-05-23 19:02:00,
2013-05-23 15:07:00,74.2,66.5,29.80,SSW,201,6.0,14.0,77,0.00,,,0.00,54.00,VWS V14.01,2013-05-23 19:07:00,
2013-05-23 15:12:00,73.5,65.5,29.80,South,179,2.0,5.0,76,0.00,,,0.00,49.00,VWS V14.01,2013-05-23 19:12:00,
2013-05-23 15:17:00,73.0,65.4,29.79,SSE,157,0.0,0.0,77,0.00,,,0.00,42.00,VWS V14.01,2013-05-23 19:17:00,
2013-05-23 15:22:00,72.5,64.5,29.79,South,185,2.0,5.0,76,0.00,,,0.00,58.00,VWS V14.01,2013-05-23 19:22:00,
2013-05-23 15:27:00,72.0,64.0,29.79,South,188,4.0,6.0,76,0.00,,,0.00,60.00,VWS V14.01,2013-05-23 19:27:00,
2013-05-23 15:32:00,71.6,64.0,29.78,SE,132,4.0,4.0,77,0.00,,,0.00,65.00,VWS V14.01,2013-05-23 19:32:00,
2013-05-23 15:37:00,71.5,64.3,29.78,SE,130,2.0,3.0,78,0.00,,,0.00,77.00,VWS V14.01,2013-05-23 19:37:00,
2013-05-23 15:42:00,71.5,64.7,29.78,SE,134,4.0,5.0,79,0.00,,,0.00,91.00,VWS V14.01,2013-05-23 19:42:00,
2013-05-23 15:47:00,71.3,64.5,29.78,SE,134,2.0,2.0,79,0.00,,,0.00,100.00,VWS V14.01,2013-05-23 19:47:00,
2013-05-23 15:52:00,71.3,64.1,29.78,SE,134,0.0,0.0,78,0.00,,,0.00,102.00,VWS V14.01,2013-05-23 19:52:00,
2013-05-23 15:57:00,71.3,64.1,29.78,SE,134,0.0,0.0,78,0.00,,,0.00,118.00,VWS V14.01,2013-05-23 19:57:00,
2013-05-23 16:02:00,71.3,64.1,29.77,SSE,166,0.0,2.0,78,0.00,,,0.00,163.00,VWS V14.01,2013-05-23 20:02:00,
2013-05-23 16:07:00,71.5,64.3,29.77,SSW,193,0.0,3.0,78,0.00,,,0.00,186.00,VWS V14.01,2013-05-23 20:07:00,
2013-05-23 16:12:00,71.8,64.6,29.77,SSW,194,0.0,0.0,78,0.00,,,0.00,188.00,VWS V14.01,2013-05-23 20:12:00,
2013-05-23 16:17:00,72.0,64.8,29.77,SE,131,0.0,0.0,78,0.00,,,0.00,160.00,VWS V14.01,2013-05-23 20:17:00,
2013-05-23 16:22:00,72.1,64.9,29.77,SE,133,1.0,1.0,78,0.00,,,0.00,148.00,VWS V14.01,2013-05-23 20:22:00,
2013-05-23 16:27:00,72.1,64.9,29.77,SE,133,1.0,3.0,78,0.00,,,0.00,155.00,VWS V14.01,2013-05-23 20:27:00,
2013-05-23 16:32:00,72.3,65.1,29.77,SE,133,0.0,0.0,78,0.00,,,0.00,113.00,VWS V14.01,2013-05-23 20:32:00,
2013-05-23 16:37:00,72.5,64.9,29.77,West,270,4.0,4.0,77,0.00,,,0.00,47.00,VWS V14.01,2013-05-23 20:37:00,
2013-05-23 16:42:00,72.3,65.4,29.77,West,270,0.0,0.0,79,0.01,,,0.01,56.00,VWS V14.01,2013-05-23 20:42:00,
2013-05-23 16:47:00,72.3,65.8,29.77,West,271,0.0,0.0,80,0.08,,,0.08,130.00,VWS V14.01,2013-05-23 20:47:00,
2013-05-23 16:52:00,72.5,67.4,29.77,West,270,0.0,0.0,84,0.09,,,0.09,195.00,VWS V14.01,2013-05-23 20:52:00,
2013-05-23 16:57:00,72.5,67.4,29.77,West,270,0.0,0.0,84,0.09,,,0.09,130.00,VWS V14.01,2013-05-23 20:57:00,
2013-05-23 17:02:00,72.5,67.4,29.77,West,270,2.0,3.0,84,0.09,,,0.09,114.00,VWS V14.01,2013-05-23 21:02:00,
2013-05-23 17:07:00,72.3,67.5,29.77,NNE,29,0.0,0.0,85,0.09,,,0.09,95.00,VWS V14.01,2013-05-23 21:07:00,
2013-05-23 17:12:00,72.1,67.3,29.77,NNE,29,0.0,0.0,85,0.09,,,0.09,95.00,VWS V14.01,2013-05-23 21:12:00,
2013-05-23 17:17:00,71.8,67.4,29.77,NNE,29,0.0,0.0,86,0.09,,,0.09,98.00,VWS V14.01,2013-05-23 21:17:00,
2013-05-23 17:22:00,71.6,67.2,29.77,NNE,29,2.0,2.0,86,0.09,,,0.09,93.00,VWS V14.01,2013-05-23 21:22:00,
2013-05-23 17:27:00,71.5,67.1,29.77,South,174,2.0,3.0,86,0.09,,,0.09,93.00,VWS V14.01,2013-05-23 21:27:00,
2013-05-23 17:32:00,71.5,67.1,29.77,South,174,0.0,0.0,86,0.09,,,0.09,88.00,VWS V14.01,2013-05-23 21:32:00,
2013-05-23 17:37:00,71.3,66.9,29.77,SSE,164,0.0,2.0,86,0.09,,,0.09,91.00,VWS V14.01,2013-05-23 21:37:00,
2013-05-23 17:42:00,71.3,66.9,29.77,South,191,4.0,5.0,86,0.08,,,0.09,84.00,VWS V14.01,2013-05-23 21:42:00,
2013-05-23 17:47:00,71.3,66.9,29.77,SSW,193,2.0,3.0,86,0.02,,,0.09,98.00,VWS V14.01,2013-05-23 21:47:00,
2013-05-23 17:52:00,71.3,67.2,29.77,SSW,195,5.0,5.0,87,0.00,,,0.09,113.00,VWS V14.01,2013-05-23 21:52:00,
2013-05-23 17:57:00,71.3,67.2,29.77,SSE,160,3.0,4.0,87,0.00,,,0.09,109.00,VWS V14.01,2013-05-23 21:57:00,
2013-05-23 18:02:00,71.5,67.8,29.76,SSE,160,0.0,0.0,88,0.00,,,0.09,93.00,VWS V14.01,2013-05-23 22:02:00,
2013-05-23 18:07:00,71.5,67.8,29.76,South,181,0.0,0.0,88,0.00,,,0.09,77.00,VWS V14.01,2013-05-23 22:07:00,
2013-05-23 18:12:00,71.5,67.8,29.76,SSE,160,0.0,0.0,88,0.00,,,0.09,74.00,VWS V14.01,2013-05-23 22:12:00,
2013-05-23 18:17:00,71.6,67.9,29.76,SSE,160,0.0,0.0,88,0.00,,,0.09,63.00,VWS V14.01,2013-05-23 22:17:00,
2013-05-23 18:22:00,71.6,67.9,29.76,SSE,150,2.0,3.0,88,0.00,,,0.09,56.00,VWS V14.01,2013-05-23 22:22:00,
2013-05-23 18:27:00,71.6,68.2,29.76,SSE,156,0.0,0.0,89,0.00,,,0.09,56.00,VWS V14.01,2013-05-23 22:27:00,
2013-05-23 18:32:00,71.6,68.2,29.77,South,174,0.0,0.0,89,0.00,,,0.09,47.00,VWS V14.01,2013-05-23 22:32:00,
2013-05-23 18:37:00,71.6,68.2,29.77,South,174,2.0,3.0,89,0.00,,,0.09,49.00,VWS V14.01,2013-05-23 22:37:00,
2013-05-23 18:42:00,71.6,68.2,29.77,SE,141,4.0,4.0,89,0.00,,,0.09,51.00,VWS V14.01,2013-05-23 22:42:00,
2013-05-23 18:47:00,71.6,68.2,29.76,SE,140,0.0,0.0,89,0.00,,,0.09,58.00,VWS V14.01,2013-05-23 22:47:00,
2013-05-23 18:52:00,71.5,68.1,29.76,South,169,4.0,4.0,89,0.00,,,0.09,63.00,VWS V14.01,2013-05-23 22:52:00,
2013-05-23 18:57:00,71.5,68.1,29.76,South,169,0.0,0.0,89,0.00,,,0.09,67.00,VWS V14.01,2013-05-23 22:57:00,
2013-05-23 19:02:00,71.5,68.1,29.76,South,169,0.0,0.0,89,0.00,,,0.09,62.00,VWS V14.01,2013-05-23 23:02:00,
2013-05-23 19:07:00,71.6,68.2,29.76,WSW,245,0.0,0.0,89,0.00,,,0.09,44.00,VWS V14.01,2013-05-23 23:07:00,
2013-05-23 19:12:00,71.6,68.2,29.76,SSW,205,0.0,0.0,89,0.00,,,0.09,46.00,VWS V14.01,2013-05-23 23:12:00,
2013-05-23 19:17:00,71.6,68.2,29.75,South,188,0.0,0.0,89,0.00,,,0.09,54.00,VWS V14.01,2013-05-23 23:17:00,
2013-05-23 19:22:00,71.8,68.4,29.75,South,190,0.0,0.0,89,0.00,,,0.09,62.00,VWS V14.01,2013-05-23 23:22:00,
2013-05-23 19:27:00,71.8,68.7,29.75,South,190,0.0,0.0,90,0.00,,,0.09,53.00,VWS V14.01,2013-05-23 23:27:00,
2013-05-23 19:32:00,71.8,68.7,29.75,South,190,0.0,0.0,90,0.00,,,0.09,40.00,VWS V14.01,2013-05-23 23:32:00,
2013-05-23 19:37:00,71.8,68.7,29.75,SSE,158,3.0,4.0,90,0.00,,,0.09,33.00,VWS V14.01,2013-05-23 23:37:00,
2013-05-23 19:42:00,71.8,68.7,29.75,SSE,158,0.0,0.0,90,0.00,,,0.09,44.00,VWS V14.01,2013-05-23 23:42:00,
2013-05-23 19:47:00,71.8,68.7,29.75,South,176,0.0,0.0,90,0.00,,,0.09,40.00,VWS V14.01,2013-05-23 23:47:00,
2013-05-23 19:52:00,71.8,68.7,29.75,South,175,0.0,0.0,90,0.00,,,0.09,21.00,VWS V14.01,2013-05-23 23:52:00,
2013-05-23 19:57:00,71.6,68.8,29.75,SSE,155,3.0,4.0,91,0.00,,,0.09,12.00,VWS V14.01,2013-05-23 23:57:00,
2013-05-23 20:02:00,71.6,68.8,29.75,South,172,0.0,3.0,91,0.00,,,0.09,11.00,VWS V14.01,2013-05-24 00:02:00,
2013-05-23 20:07:00,71.3,68.2,29.75,SW,221,3.0,5.0,90,0.00,,,0.09,5.00,VWS V14.01,2013-05-24 00:07:00,
2013-05-23 20:12:00,71.1,68.3,29.75,South,187,0.0,0.0,91,0.00,,,0.09,0.00,VWS V14.01,2013-05-24 00:12:00,
2013-05-23 20:17:00,71.1,68.3,29.77,WSW,240,0.0,0.0,91,0.00,,,0.09,0.00,VWS V14.01,2013-05-24 00:17:00,
2013-05-23 20:22:00,71.1,68.3,29.77,SW,230,0.0,0.0,91,0.00,,,0.09,0.00,VWS V14.01,2013-05-24 00:22:00,
2013-05-23 20:27:00,70.9,68.2,29.77,SE,136,0.0,0.0,91,0.00,,,0.09,0.00,VWS V14.01,2013-05-24 00:27:00,
2013-05-23 20:32:00,70.9,68.2,29.75,SE,137,3.0,4.0,91,0.00,,,0.09,0.00,VWS V14.01,2013-05-24 00:32:00,
2013-05-23 20:37:00,70.9,68.2,29.75,South,169,3.0,3.0,91,0.00,,,0.09,0.00,VWS V14.01,2013-05-24 00:37:00,
2013-05-23 20:42:00,70.8,68.1,29.75,SSE,150,1.0,3.0,91,0.00,,,0.09,0.00,VWS V14.01,2013-05-24 00:42:00,
2013-05-23 20:47:00,70.8,68.1,29.75,SE,136,0.0,0.0,91,0.00,,,0.09,0.00,VWS V14.01,2013-05-24 00:47:00,
2013-05-23 20:52:00,70.6,67.8,29.75,South,169,2.0,3.0,91,0.00,,,0.09,0.00,VWS V14.01,2013-05-24 00:52:00,
2013-05-23 20:57:00,70.6,68.2,29.75,South,179,2.0,3.0,92,0.00,,,0.09,0.00,VWS V14.01,2013-05-24 00:57:00,
2013-05-23 21:02:00,70.4,68.0,29.75,SSE,162,0.0,0.0,92,0.00,,,0.09,0.00,VWS V14.01,2013-05-24 01:02:00,
2013-05-23 21:07:00,70.3,67.9,29.75,SSE,167,3.0,3.0,92,0.00,,,0.09,0.00,VWS V14.01,2013-05-24 01:07:00,
2013-05-23 21:12:00,70.1,67.7,29.75,SSW,198,3.0,4.0,92,0.00,,,0.09,0.00,VWS V14.01,2013-05-24 01:12:00,
2013-05-23 21:17:00,70.1,67.7,29.75,SSW,196,5.0,5.0,92,0.00,,,0.09,0.00,VWS V14.01,2013-05-24 01:17:00,
2013-05-23 21:22:00,69.9,67.5,29.75,SSE,160,2.0,4.0,92,0.00,,,0.09,0.00,VWS V14.01,2013-05-24 01:22:00,
2013-05-23 21:27:00,69.8,67.4,29.75,SSE,165,0.0,0.0,92,0.00,,,0.09,0.00,VWS V14.01,2013-05-24 01:27:00,
2013-05-23 21:32:00,69.8,67.4,29.76,South,172,0.0,0.0,92,0.00,,,0.09,0.00,VWS V14.01,2013-05-24 01:32:00,
2013-05-23 21:37:00,69.8,67.4,29.76,South,172,4.0,4.0,92,0.00,,,0.09,0.00,VWS V14.01,2013-05-24 01:37:00,
2013-05-23 21:42:00,69.9,67.5,29.76,SW,228,3.0,3.0,92,0.00,,,0.09,0.00,VWS V14.01,2013-05-24 01:42:00,
2013-05-23 21:47:00,69.9,67.8,29.77,West,278,0.0,1.0,93,0.00,,,0.09,0.00,VWS V14.01,2013-05-24 01:47:00,
2013-05-23 21:52:00,69.9,67.5,29.77,WSW,242,0.0,0.0,92,0.00,,,0.09,0.00,VWS V14.01,2013-05-24 01:52:00,
2013-05-23 21:57:00,69.9,67.5,29.77,SSW,205,4.0,4.0,92,0.00,,,0.09,0.00,VWS V14.01,2013-05-24 01:57:00,
2013-05-23 22:02:00,69.9,67.5,29.77,SSW,192,2.0,2.0,92,0.00,,,0.09,0.00,VWS V14.01,2013-05-24 02:02:00,
2013-05-23 22:07:00,69.9,67.5,29.77,WSW,250,5.0,6.0,92,0.00,,,0.09,0.00,VWS V14.01,2013-05-24 02:07:00,
2013-05-23 22:12:00,69.9,67.5,29.77,SW,233,2.0,3.0,92,0.00,,,0.09,0.00,VWS V14.01,2013-05-24 02:12:00,
2013-05-23 22:17:00,69.9,67.5,29.77,West,259,2.0,2.0,92,0.00,,,0.09,0.00,VWS V14.01,2013-05-24 02:17:00,
2013-05-23 22:22:00,69.9,67.5,29.77,South,176,0.0,0.0,92,0.00,,,0.09,0.00,VWS V14.01,2013-05-24 02:22:00,
2013-05-23 22:27:00,70.1,67.7,29.77,South,188,0.0,0.0,92,0.00,,,0.09,0.00,VWS V14.01,2013-05-24 02:27:00,
2013-05-23 22:32:00,70.1,67.7,29.78,West,271,0.0,1.0,92,0.00,,,0.09,0.00,VWS V14.01,2013-05-24 02:32:00,
2013-05-23 22:37:00,70.1,67.7,29.78,SW,231,3.0,4.0,92,0.00,,,0.09,0.00,VWS V14.01,2013-05-24 02:37:00,
2013-05-23 22:42:00,69.9,67.5,29.78,SSW,192,1.0,3.0,92,0.00,,,0.09,0.00,VWS V14.01,2013-05-24 02:42:00,
2013-05-23 22:47:00,69.9,67.5,29.77,SSW,192,1.0,1.0,92,0.00,,,0.09,0.00,VWS V14.01,2013-05-24 02:47:00,
2013-05-23 22:52:00,69.9,67.5,29.77,SSW,192,0.0,0.0,92,0.00,,,0.09,0.00,VWS V14.01,2013-05-24 02:52:00,
2013-05-23 22:57:00,69.8,67.4,29.77,SSW,192,2.0,2.0,92,0.00,,,0.09,0.00,VWS V14.01,2013-05-24 02:57:00,
2013-05-23 23:02:00,69.8,67.4,29.77,SSW,192,0.0,0.0,92,0.00,,,0.09,0.00,VWS V14.01,2013-05-24 03:02:00,
2013-05-23 23:07:00,69.8,67.4,29.77,SSW,192,0.0,1.0,92,0.00,,,0.09,0.00,VWS V14.01,2013-05-24 03:07:00,
2013-05-23 23:12:00,69.8,67.4,29.77,SSW,192,1.0,1.0,92,0.00,,,0.09,0.00,VWS V14.01,2013-05-24 03:12:00,
2013-05-23 23:17:00,69.6,67.2,29.77,SSW,192,0.0,0.0,92,0.00,,,0.09,0.00,VWS V14.01,2013-05-24 03:17:00,
2013-05-23 23:22:00,69.6,67.2,29.77,SSW,192,0.0,0.0,92,0.00,,,0.09,0.00,VWS V14.01,2013-05-24 03:22:00,
2013-05-23 23:27:00,69.6,67.2,29.77,SSW,192,0.0,0.0,92,0.00,,,0.09,0.00,VWS V14.01,2013-05-24 03:27:00,
2013-05-23 23:32:00,69.4,67.0,29.77,SSW,192,0.0,0.0,92,0.00,,,0.09,0.00,VWS V14.01,2013-05-24 03:32:00,
2013-05-23 23:37:00,69.4,67.0,29.77,SSW,192,0.0,0.0,92,0.00,,,0.09,0.00,VWS V14.01,2013-05-24 03:37:00,
2013-05-23 23:41:00,69.3,67.2,29.77,SSW,192,0.0,0.0,93,0.00,,,0.09,0.00,VWS V14.01,2013-05-24 03:41:00,
2013-05-23 23:46:00,69.3,67.2,29.75,SSW,192,3.0,3.0,93,0.00,,,0.09,0.00,VWS V14.01,2013-05-24 03:46:00,
2013-05-23 23:51:00,69.3,67.2,29.75,SSW,192,0.0,0.0,93,0.00,,,0.09,0.00,VWS V14.01,2013-05-24 03:51:00,
2013-05-23 23:56:00,69.3,67.2,29.75,SSW,192,0.0,0.0,93,0.00,,,0.09,0.00,VWS V14.01,2013-05-24 03:56:00,